Regional Weather Roundup
Issued by NWS Bismarck, ND

Home | Current Version | Previous Version | Text Only | Print | Product List | Glossary On
Versions: 1 2 3 4 5 6 7 8 9 10 11 12 13 14 15 16 17 18 19 20 21 22 23 24 25 26 27 28 29 30 31 32 33 34 35 36 37 38 39 40 41 42 43 44 45 46 47 48 49 50
000
ASUS43 KBIS 241510
RWRBIS

NWR BROADCAST TEXT
NATIONAL WEATHER SERVICE BISMARCK ND
1000 AM CDT MON APR 24 2017

NOTE: "FAIR" INDICATES FEW OR NO CLOUDS BELOW 12,000 FEET WITH NO
SIGNIFICANT WEATHER AND/OR OBSTRUCTIONS TO VISIBILITY.


CITY           SKY/WX    TMP DP  RH WIND       PRES   REMARKS
WILLISTON      CLOUDY    32  28  85 NE10      29.73F
MINOT          LGT SNOW  30  27  88 N10       29.72S FOG
MINOT AFB      NOT AVBL
BISMARCK       CLOUDY    35  32  88 N10       29.67R
DICKINSON      CLOUDY    29  28  96 N6        29.65R
GARRISON         N/A     31  28  89 NE6       29.69R
HETTINGER ARPT CLOUDY    33  31  92 N9        29.66S
JAMESTOWN      LGT RAIN  34  32  92 N12       29.61F
HAZEN          CLOUDY    30  30 100 NE6       29.72R
LINTON         LGT RAIN  36  36 100 N12       29.61F
MANDAN         CLOUDY    32  32 100 N9        29.66S
STANLEY        LGT SNOW  28  28 100 E9        29.74S WCI  20
TIOGA          PTSUNNY   27  27 100 E12       29.74S FOG     WCI  16
WATFORD CITY     N/A     30  30 100 E6        29.71S FOG
$$

CITY           SKY/WX    TMP DP  RH WIND       PRES   REMARKS
GRAND FORKS    LGT RAIN  36  34  92 E16       29.67F
GRAND FORKS AF LGT RAIN  33  32  96 E10       29.68R
DEVILS LAKE    FLURRIES  32  30  92 NE15      29.70R
FARGO          FAIR      44  34  67 E9        29.60F
CAVALIER       LGT SNOW  34  30  86 E15       29.75F
GRAFTON        LGT SNOW  34  32  93 E15       29.74F
GWINNER        PTSUNNY   41  37  87 MISG      29.56S
LANGDON        CLOUDY    30  27  86 NE20      29.71F WCI  18
ROLLA          MIX PCPN  28  21  74 NE20      29.73F WCI  15
$$

CITY           SKY/WX    TMP DP  RH WIND       PRES   REMARKS
ABERDEEN       FAIR      51  40  65 NW7       29.53R
MOBRIDGE       CLOUDY    39  34  82 N16       29.55F
BUFFALO          N/A     39  36  89 N9        29.57F
RAPID CITY     CLOUDY    42  40  92 N20G25    29.61S FOG
GLASGOW        CLOUDY    34  31  88 E6        29.70R
WOLF POINT     CLOUDY    33  31  92 E9        29.73R
GLENDIVE       CLOUDY    34  33  96 N5        29.68F
MILES CITY     CLOUDY    43  40  89 N5        29.65S
BAKER          CLOUDY    36  34  92 SE3       29.64F FOG
$$

CITY           SKY/WX    TMP DP  RH WIND       PRES   REMARKS
BILLINGS       PTSUNNY   49  38  65 SW7       29.66R
GREAT FALLS    CLOUDY    47  35  63 SW9       29.64S
REGINA         FLURRIES  28  23  80 E21G29    29.81F WCI  15
ESTEVAN        SNOW      28  25  86 E12G17    29.78S VSB 3/8 WCI  18
$$




USA.gov is the U.S. government's official web portal to all federal, state and local government web resources and services.